Location: NCO
(38.4404°N, 77.1340°W)
Time: 10:35:04
(UTC-04:00)

Tiangong 2 - Visible Passes

Search period start: 28 May 2017 00:00
Search period end: 07 June 2017 00:00
Orbit: 379 x 390 km, 42.8° (Epoch: 27 May)

Date Brightness Start Highest point End Pass type
(mag) Time Alt. Az. Time Alt. Az. Time Alt. Az.
28 May 2.3 20:58:43 10° W 21:01:47 42° N 21:04:50 10° ENE visible
28 May 2.2 22:35:52 10° WNW 22:38:53 39° N 22:39:21 36° NNE visible
29 May 2.6 21:36:08 10° WNW 21:39:07 35° N 21:42:04 10° ENE visible
29 May 3.2 23:12:57 10° WNW 23:14:30 26° WNW 23:14:30 26° WNW visible
30 May 1.8 22:13:17 10° WNW 22:16:24 49° NNE 22:17:24 34° ENE visible
31 May 2.3 21:13:37 10° WNW 21:16:39 39° N 21:19:39 10° E visible
31 May 2.3 22:50:21 10° WNW 22:52:29 38° W 22:52:29 38° W visible
01 Jun 1.2 21:50:40 10° WNW 21:53:51 72° NNE 21:55:22 28° E visible
02 Jun 2.0 22:27:50 10° W 22:30:27 37° SW 22:30:27 37° SW visible
03 Jun 1.1 21:28:03 10° WNW 21:31:13 71° SSW 21:33:22 19° ESE visible
04 Jun 2.7 22:05:31 10° W 22:08:02 22° SW 22:08:30 21° SSW visible
05 Jun 2.0 21:05:29 10° W 21:08:29 39° SSW 21:11:29 10° SE visible
06 Jun 3.6 21:43:51 10° WSW 21:45:10 12° SW 21:46:29 10° SSW visible
